CFG2016 EDDF-EKCH

Flight info

Callsign CFG2016
Flight time 0h 59m
Altitude 41000
Route MARUN3W MARUN Y150 TOLGI DCT SAS DCT MAKEL N851 GESKA Z711 MONAK
Aircraft A359/H-SDE2E3GHIJ3J4J5LM1ORWXY/LB1D1

Departure

Time 2026-05-04 16:09
Airport Frankfurt Main Airport (EDDF)

Arrival

Time 2026-05-04 17:08
Airport Copenhagen Kastrup Airport (EKCH)
Time Latitude Longitude Altitude Speed Heading
2026-05-04 15:42 50.04774 8.56497 362 ft 0 kts 339°
2026-05-04 15:55 50.04769 8.56500 370 ft 2 kts 339°
2026-05-04 15:55 50.04750 8.56511 368 ft 3 kts 336°
2026-05-04 15:55 50.04732 8.56524 369 ft 3 kts 328°
2026-05-04 15:56 50.04717 8.56541 368 ft 3 kts 310°
2026-05-04 15:56 50.04709 8.56556 365 ft 3 kts 278°
2026-05-04 15:56 50.04708 8.56568 363 ft 0 kts 246°
2026-05-04 16:00 50.04705 8.56557 363 ft 4 kts 245°
2026-05-04 16:01 50.04683 8.56482 367 ft 11 kts 246°
2026-05-04 16:01 50.04643 8.56333 364 ft 18 kts 248°
2026-05-04 16:01 50.04591 8.56121 367 ft 24 kts 250°
2026-05-04 16:01 50.04496 8.55941 368 ft 21 kts 200°
2026-05-04 16:02 50.04338 8.55911 366 ft 24 kts 170°
2026-05-04 16:02 50.04219 8.55923 362 ft 0 kts 176°
2026-05-04 16:02 50.04093 8.55983 362 ft 15 kts 142°
2026-05-04 16:03 50.04074 8.56055 362 ft 9 kts 85°
2026-05-04 16:03 50.04100 8.56161 367 ft 13 kts 69°
2026-05-04 16:03 50.04141 8.56333 365 ft 21 kts 70°
2026-05-04 16:03 50.04199 8.56572 365 ft 26 kts 69°
2026-05-04 16:04 50.04267 8.56862 370 ft 31 kts 71°
2026-05-04 16:04 50.04429 8.57556 374 ft 35 kts 70°
2026-05-04 16:04 50.04499 8.57850 372 ft 25 kts 70°
2026-05-04 16:05 50.04510 8.57901 375 ft 4 kts 70°
2026-05-04 16:05 50.04531 8.57989 374 ft 13 kts 70°
2026-05-04 16:05 50.04634 8.58403 376 ft 26 kts 69°
2026-05-04 16:06 50.04649 8.58475 376 ft 2 kts 73°
2026-05-04 16:06 50.04600 8.58591 378 ft 10 kts 160°
2026-05-04 16:07 50.04519 8.58605 377 ft 12 kts 198°
2026-05-04 16:07 50.04476 8.58529 376 ft 0 kts 245°
2026-05-04 16:08 50.04476 8.58528 376 ft 4 kts 245°
2026-05-04 16:08 50.03900 8.56184 416 ft 173 kts 251°
2026-05-04 16:09 50.03017 8.52909 2380 ft 153 kts 249°
2026-05-04 16:09 50.02665 8.49278 3298 ft 201 kts 277°
2026-05-04 16:10 50.03117 8.44398 4373 ft 249 kts 276°
2026-05-04 16:11 50.06410 8.37978 5230 ft 273 kts 324°
2026-05-04 16:11 50.08005 8.36315 5870 ft 280 kts 322°
2026-05-04 16:12 50.13863 8.33051 8001 ft 338 kts 11°
2026-05-04 16:12 50.20801 8.36483 10916 ft 358 kts 17°
2026-05-04 16:13 50.25588 8.38811 12942 ft 364 kts 17°
2026-05-04 16:13 50.30461 8.41153 14731 ft 373 kts 17°
2026-05-04 16:14 50.35435 8.43887 16257 ft 385 kts 19°
2026-05-04 16:14 50.40543 8.46720 17923 ft 396 kts 18°
2026-05-04 16:15 50.48324 8.50990 20244 ft 410 kts 18°
2026-05-04 16:16 50.53856 8.53639 21847 ft 420 kts 15°
2026-05-04 16:16 50.62350 8.57656 23980 ft 434 kts 15°
2026-05-04 16:17 50.68197 8.60461 25192 ft 443 kts 15°
2026-05-04 16:18 50.77158 8.64803 27040 ft 456 kts 17°
2026-05-04 16:18 50.80099 8.66774 27630 ft 462 kts 27°
2026-05-04 16:19 50.87113 8.77275 29288 ft 475 kts 53°
2026-05-04 16:19 50.91115 8.85689 30298 ft 483 kts 54°
2026-05-04 16:20 50.97210 8.98658 31669 ft 493 kts 54°
2026-05-04 16:20 51.01351 9.07407 32569 ft 500 kts 53°
2026-05-04 16:21 51.07754 9.20601 33766 ft 509 kts 47°
2026-05-04 16:22 51.13317 9.27583 34432 ft 512 kts 26°
2026-05-04 16:22 51.23344 9.32546 35715 ft 504 kts
2026-05-04 16:23 51.33613 9.35993 37154 ft 501 kts
2026-05-04 16:24 51.47194 9.40677 38826 ft 498 kts
2026-05-04 16:25 51.53890 9.43029 39396 ft 497 kts 10°
2026-05-04 16:26 51.67404 9.47792 40454 ft 496 kts 10°
2026-05-04 16:26 51.77543 9.51378 40956 ft 503 kts 10°
2026-05-04 16:27 51.84248 9.54567 40951 ft 508 kts 23°
2026-05-04 16:28 51.93781 9.62165 40952 ft 509 kts 25°
2026-05-04 16:29 52.15789 9.80602 40962 ft 509 kts 25°
2026-05-04 16:31 52.31523 9.93759 40966 ft 509 kts 25°
2026-05-04 16:32 52.50452 10.09401 40942 ft 509 kts 25°
2026-05-04 16:33 52.63066 10.19943 40942 ft 509 kts 25°
2026-05-04 16:34 52.72534 10.27900 40949 ft 509 kts 25°
2026-05-04 16:35 52.91430 10.43897 40945 ft 509 kts 25°
2026-05-04 16:36 53.00861 10.51941 40951 ft 508 kts 25°
2026-05-04 16:37 53.10242 10.59980 40958 ft 508 kts 25°
2026-05-04 16:38 53.22789 10.70797 40962 ft 507 kts 25°
2026-05-04 16:39 53.38415 10.84368 40964 ft 507 kts 25°
2026-05-04 16:40 53.44667 10.89830 40790 ft 506 kts 25°
2026-05-04 16:40 53.50863 10.95261 40308 ft 505 kts 25°
2026-05-04 16:41 53.56898 11.00562 39866 ft 504 kts 25°
2026-05-04 16:41 53.66252 11.08656 39244 ft 506 kts 26°
2026-05-04 16:42 53.75548 11.17063 38551 ft 508 kts 25°
2026-05-04 16:43 53.81798 11.22657 37982 ft 509 kts 25°
2026-05-04 16:43 53.88077 11.28269 37433 ft 511 kts 25°
2026-05-04 16:43 53.91229 11.31092 37158 ft 512 kts 25°
2026-05-04 16:44 54.03838 11.42443 35768 ft 512 kts 25°
2026-05-04 16:45 54.10091 11.48103 34320 ft 513 kts 25°
2026-05-04 16:46 54.19538 11.56692 32199 ft 508 kts 25°
2026-05-04 16:46 54.25731 11.62349 31006 ft 500 kts 25°
2026-05-04 16:47 54.31772 11.67883 29822 ft 494 kts 25°
2026-05-04 16:47 54.37775 11.73437 29159 ft 485 kts 25°
2026-05-04 16:48 54.46602 11.81668 28339 ft 480 kts 26°
2026-05-04 16:48 54.49537 11.84413 28068 ft 478 kts 26°
2026-05-04 16:49 54.55320 11.89836 27251 ft 470 kts 26°
2026-05-04 16:49 54.61005 11.95182 26121 ft 463 kts 26°
2026-05-04 16:50 54.66609 12.00468 24994 ft 457 kts 26°
2026-05-04 16:50 54.72153 12.05714 23841 ft 452 kts 26°
2026-05-04 16:51 54.77638 12.10921 22617 ft 446 kts 27°
2026-05-04 16:51 54.80346 12.13499 22015 ft 441 kts 27°
2026-05-04 16:51 54.85683 12.18590 20865 ft 433 kts 27°
2026-05-04 16:52 54.90880 12.23562 19712 ft 426 kts 27°
2026-05-04 16:52 54.93468 12.26043 19123 ft 424 kts 26°
2026-05-04 16:53 54.98607 12.30980 17923 ft 419 kts 26°
2026-05-04 16:53 55.06107 12.38213 16179 ft 406 kts 27°
2026-05-04 16:54 55.08563 12.40587 15606 ft 402 kts 27°
2026-05-04 16:55 55.18188 12.49928 13325 ft 389 kts 27°
2026-05-04 16:55 55.22862 12.54484 12200 ft 379 kts 27°
2026-05-04 16:56 55.27382 12.58901 11302 ft 365 kts 27°
2026-05-04 16:56 55.33632 12.65034 10913 ft 323 kts 27°
2026-05-04 16:57 55.35561 12.66930 10649 ft 316 kts 27°
2026-05-04 16:57 55.39384 12.70688 9955 ft 313 kts 27°
2026-05-04 16:58 55.45055 12.76282 8888 ft 311 kts 27°
2026-05-04 16:58 55.46940 12.78146 8537 ft 309 kts 27°
2026-05-04 16:59 55.50665 12.81837 7847 ft 305 kts 27°
2026-05-04 17:00 55.58107 12.88464 6533 ft 296 kts 15°
2026-05-04 17:00 55.63920 12.91915 5556 ft 291 kts 15°
2026-05-04 17:01 55.67717 12.94167 4902 ft 285 kts 15°
2026-05-04 17:01 55.71523 12.95106 4251 ft 275 kts 356°
2026-05-04 17:02 55.75213 12.94426 3586 ft 259 kts 334°
2026-05-04 17:02 55.77232 12.89915 3024 ft 234 kts 269°
2026-05-04 17:03 55.76760 12.87319 2983 ft 216 kts 231°
2026-05-04 17:03 55.75669 12.85652 2987 ft 201 kts 217°
2026-05-04 17:03 55.73664 12.82867 3000 ft 166 kts 223°
2026-05-04 17:04 55.72094 12.80399 2935 ft 142 kts 224°
2026-05-04 17:04 55.70619 12.78098 2566 ft 142 kts 223°
2026-05-04 17:05 55.69128 12.75771 2166 ft 144 kts 222°
2026-05-04 17:05 55.67697 12.73542 1786 ft 129 kts 222°
2026-05-04 17:06 55.66360 12.71457 1442 ft 130 kts 221°
2026-05-04 17:06 55.65681 12.70401 1271 ft 130 kts 221°
2026-05-04 17:07 55.64325 12.68290 882 ft 130 kts 222°
2026-05-04 17:07 55.63875 12.67590 762 ft 130 kts 223°
2026-05-04 17:07 55.62980 12.66198 514 ft 129 kts 224°
2026-05-04 17:07 55.62310 12.65156 334 ft 128 kts 225°
2026-05-04 17:08 55.61641 12.64115 166 ft 128 kts 225°
2026-05-04 17:08 55.60416 12.62206 28 ft 75 kts 221°
2026-05-04 17:08 55.60203 12.61872 28 ft 32 kts 221°
2026-05-04 17:09 55.60047 12.61612 29 ft 10 kts 236°
2026-05-04 17:09 55.60037 12.61560 29 ft 8 kts 263°